sat.trackr.live / text

‹ back to catalog

STARLINK-3505

NORAD 51750 · 2022-016AN

PAYLOAD ACTIVE UNKNOWN

§ Identity

Operator
Country
US
Launch date
2022-02-21
Launch site
AFETR
Launch vehicle
Mass (kg)
RCS (m²)

Purposes: comms

External: N2YO · Heavens-Above · Gunter

§ Orbital elements

Epoch: 2026-09-20T02:36:56.890656Z

Period
94.01 min
Inclination
53.1595°
Eccentricity
0.0001114
Mean motion
15.31702766 rev/d
Perigee alt
470.0 km
Apogee alt
471.5 km
Semi-major
6,848.9 km
B*
3.2085e-5
RAAN
143.6971°
Arg perigee
93.7178°
Mean anomaly
266.3951°
Rev number
25,322

§ Raw data

STARLINK-35051 51750U 22016AN  26263.10899179  .00000631  00000+0  32085-4 0  99932 51750  53.1595 143.6971 0001114  93.7178 266.3951 15.31702766253225

JSON: /api/v1/satellites/51750 · /tle

For live sub-satellite position, see the globe view (requires WebGL).

§ Visibility from observer

Set your observer location to see the next 7 days of passes ≥ 10°. The values pass through the URL so the page stays shareable.

No JS? Fill the form by hand. The geolocation button needs JavaScript.